Flag for Afghanistan Weather past 2 weeks in Kabul, Afghanistan

Now
73 °F

Thunderstorms. Partly cloudy.


Feels Like: 70 °F
Forecast: 63 / 85 °F
Wind: 12 mph from Southwest

Location: Peshawar Airport

Current Time: Aug 2, 2015 at 3:48:28 AM

Latest Report: Aug 2, 2015 at 3:30 AM


Visibility: 2 mi

Pressure: 29.68 "Hg (24.11 "Hg at 1800m altitude)

Humidity: 94%

Dew point: 72 °F

Location of KabulLocation

Historic Weather in Kabul — Graph

°F

Kabul temperature yesterday

Maximum temperature yesterday: 81 °F (at 1:30 AM)
Minimum temperature yesterday: 73 °F (at 5:30 AM)
Average temperature yesterday: 76 °F

Past Weeks' High & Low Weather Summary

 TemperatureHumidityPressure
High100 °F (Jul 20, 2:30 PM)100% (Jul 25, 2:30 PM)29.77 "Hg (Jul 25, 2:30 PM)
Low37 °F (Jul 25, 2:30 PM)39% (Jul 29, 3:30 PM)29.53 "Hg (Jul 18, 11:30 AM)
Average85 °F66%29.61 "Hg
* Reported Jul 18 2:30 AM — Aug 2 2:30 AM, Kabul, Weather by CustomWeather, © 2015

Note: Actual official high and low records may vary slightly from our data, if they occured in-between our weather recording intervals... More about our weather records

Advertising

Kabul weather history for previous 24 hours

 ConditionsComfort  
Time TempWeatherWind HumidityBarometerVisibility
2:30 AM
Sun, Aug 2
73 °FThunderstorms. Partly cloudy.9 mph94%29.68 "Hg2 mi
1:30 AM73 °FLight rain. Partly cloudy.14 mph94%29.68 "Hg2 mi
12:30 AM73 °FThundershowers. Partly cloudy.7 mph94%29.71 "Hg2 mi
11:30 PM
Sat, Aug 1
75 °FLight rain. Partly cloudy.5 mph94%29.71 "Hg2 mi
10:30 PM75 °FThundershowers. Partly cloudy.7 mph89%29.71 "Hg2 mi
9:30 PM75 °FLight rain. Partly cloudy.No wind94%29.71 "Hg2 mi
8:30 PM75 °FLight rain. Partly cloudy.9 mph94%29.71 "Hg2 mi
7:30 PM75 °FRain. Partly cloudy.12 mph94%29.68 "Hg2 mi
6:30 PM75 °FRain. More clouds than sun.12 mph94%29.68 "Hg1 mi
5:30 PM75 °FRain. More clouds than sun.12 mph94%29.65 "Hg1 mi
4:30 PM75 °FRain. More clouds than sun.14 mph94%29.65 "Hg1 mi
3:30 PM75 °FRain. More clouds than sun.12 mph94%29.65 "Hg1 mi
2:30 PM75 °FRain. More clouds than sun.12 mph94%29.65 "Hg1 mi
1:30 PM75 °FRain. More clouds than sun.9 mph94%29.65 "Hg1 mi
12:30 PM75 °FRain. More clouds than sun.12 mph94%29.68 "Hg1 mi
11:30 AM75 °FLight rain. Broken clouds.9 mph94%29.68 "Hg2 mi
10:30 AM75 °FLight rain. Broken clouds.7 mph94%29.65 "Hg1 mi
9:30 AM75 °FLight rain. Broken clouds.12 mph94%29.65 "Hg2 mi
8:30 AM75 °FThunderstorms. More clouds than sun.14 mph94%29.62 "Hg2 mi
7:30 AM73 °FThunderstorms. More clouds than sun.12 mph94%29.59 "Hg1 mi
6:30 AM73 °FThunderstorms. Broken clouds.12 mph94%29.59 "Hg2 mi
5:30 AM73 °FThunderstorms. Broken clouds.12 mph94%29.56 "Hg2 mi
4:29 AM77 °FThunderstorms. Partly cloudy.12 mph89%29.53 "Hg2 mi
3:30 AM79 °FThunderstorms. Partly cloudy.14 mph79%N/A1 mi
Weather by CustomWeather, © 2015

See weather overviewHow to use our weather pages